User: anonymous   Login
Location: La Vergne
(36.0160°N, 86.5820°W)
Time: 17:25:54
(UTC-05:00)
Language:

Cosmos 1703 Rocket - Orbit

View from above orbital plane
View from above orbital plane
View from above satellite
View from above satellite

Ground track
Ground track

The orbit data is extracted from the following two-line orbital elements,

1 16263U 85108B   16182.83471593  .00000083  00000-0  71621-5 0  9991
2 16263  82.5048  83.9215 0021607  67.0606 358.9358 14.82925602652313
Epoch (UTC): 30 June 2016 20:01:59
Eccentricity: 0.0021607
inclination: 82.5048°
perigee height: 605 km
apogee height: 635 km
right ascension of ascending node: 83.9215°
argument of perigee: 67.0606°
revolutions per day: 14.82925602
mean anomaly at epoch: 358.9358°
orbit number at epoch: 65231

The dashed part of the orbit path shows where the satellite is in the earth's shadow,  

DLR